Time,TemperatureF,DewpointF,PressureIn,WindDirection,WindDirectionDegrees,WindSpeedMPH,WindSpeedGustMPH,Humidity,HourlyPrecipIn,Conditions,Clouds,dailyrainin,SoftwareType,DateUTC
2014-01-30 00:01:00,8.1,-9.0,30.32,South,189,0.0,-999.0,45,-99.99,,,0.05,weatherlink.com 1.10,2014-01-30 05:01:00,
2014-01-30 00:16:00,7.6,-11.0,30.32,SSW,203,0.0,-999.0,43,-99.99,,,0.00,weatherlink.com 1.10,2014-01-30 05:16:00,
2014-01-30 00:32:00,6.3,-9.0,30.32,SSW,200,1.0,-999.0,49,-99.99,,,0.00,weatherlink.com 1.10,2014-01-30 05:32:00,
2014-01-30 00:47:00,4.8,-9.0,30.33,SSW,200,0.0,-999.0,52,-99.99,,,0.00,weatherlink.com 1.10,2014-01-30 05:47:00,
2014-01-30 01:02:00,4.3,-11.0,30.33,SSW,200,0.0,-999.0,49,-99.99,,,0.00,weatherlink.com 1.10,2014-01-30 06:02:00,
2014-01-30 01:17:00,3.7,-12.0,30.34,SSW,200,0.0,-999.0,47,-99.99,,,0.00,weatherlink.com 1.10,2014-01-30 06:17:00,
2014-01-30 01:32:00,3.4,-11.0,30.33,SSW,200,0.0,-999.0,51,-99.99,,,0.00,weatherlink.com 1.10,2014-01-30 06:32:00,
2014-01-30 01:47:00,3.0,-11.0,30.35,SSW,200,0.0,-999.0,52,-99.99,,,0.00,weatherlink.com 1.10,2014-01-30 06:47:00,
2014-01-30 02:02:00,2.8,-9.0,30.35,SSW,200,0.0,-999.0,58,-99.99,,,0.00,weatherlink.com 1.10,2014-01-30 07:02:00,
2014-01-30 02:17:00,3.2,-8.0,30.35,SSW,200,0.0,-999.0,60,-99.99,,,0.00,weatherlink.com 1.10,2014-01-30 07:17:00,
2014-01-30 02:32:00,2.8,-9.0,30.35,SSW,200,0.0,-999.0,58,-99.99,,,0.00,weatherlink.com 1.10,2014-01-30 07:32:00,
2014-01-30 02:47:00,2.4,-8.0,30.35,SSW,200,0.0,-999.0,62,-99.99,,,0.00,weatherlink.com 1.10,2014-01-30 07:47:00,
2014-01-30 03:02:00,2.0,-7.0,30.36,SSW,200,0.0,-999.0,65,-99.99,,,0.00,weatherlink.com 1.10,2014-01-30 08:02:00,
2014-01-30 03:17:00,1.7,-8.0,30.35,SSW,200,0.0,-999.0,64,-99.99,,,0.00,weatherlink.com 1.10,2014-01-30 08:17:00,
2014-01-30 03:32:00,1.5,-8.0,30.37,SSW,200,0.0,-999.0,64,-99.99,,,0.00,weatherlink.com 1.10,2014-01-30 08:32:00,
2014-01-30 03:47:00,1.1,-8.0,30.37,SSW,200,0.0,-999.0,65,-99.99,,,0.00,weatherlink.com 1.10,2014-01-30 08:47:00,
2014-01-30 04:03:00,0.7,-8.0,30.37,SSW,200,0.0,-999.0,66,-99.99,,,0.00,weatherlink.com 1.10,2014-01-30 09:03:00,
2014-01-30 04:18:00,0.5,-7.0,30.37,SSW,200,0.0,-999.0,69,-99.99,,,0.00,weatherlink.com 1.10,2014-01-30 09:18:00,
2014-01-30 04:33:00,0.5,-7.0,30.39,SSW,200,0.0,-999.0,70,-99.99,,,0.00,weatherlink.com 1.10,2014-01-30 09:33:00,
2014-01-30 04:48:00,0.5,-7.0,30.39,SSW,200,0.0,-999.0,71,-99.99,,,0.00,weatherlink.com 1.10,2014-01-30 09:48:00,
2014-01-30 05:03:00,0.1,-8.0,30.39,SSW,200,0.0,-999.0,70,-99.99,,,0.00,weatherlink.com 1.10,2014-01-30 10:03:00,
2014-01-30 05:18:00,-0.4,-8.0,30.39,SSW,200,0.0,-999.0,71,-99.99,,,0.00,weatherlink.com 1.10,2014-01-30 10:18:00,
2014-01-30 05:33:00,-1.0,-9.0,30.40,SSW,200,0.0,-999.0,70,-99.99,,,0.00,weatherlink.com 1.10,2014-01-30 10:33:00,
2014-01-30 05:48:00,-2.4,-9.0,30.41,SSW,200,0.0,-999.0,74,-99.99,,,0.00,weatherlink.com 1.10,2014-01-30 10:48:00,
2014-01-30 06:03:00,-2.0,-8.0,30.40,SSW,200,0.0,-999.0,77,-99.99,,,0.00,weatherlink.com 1.10,2014-01-30 11:03:00,
2014-01-30 06:18:00,-1.8,-7.0,30.41,SSW,200,0.0,-999.0,77,-99.99,,,0.00,weatherlink.com 1.10,2014-01-30 11:18:00,
2014-01-30 06:33:00,1.5,-5.0,30.40,SSW,200,1.0,-999.0,73,-99.99,,,0.00,weatherlink.com 1.10,2014-01-30 11:33:00,
2014-01-30 06:48:00,1.3,-6.0,30.39,SSW,200,0.0,-999.0,70,-99.99,,,0.00,weatherlink.com 1.10,2014-01-30 11:48:00,
2014-01-30 07:03:00,0.1,-7.0,30.41,SSW,200,1.0,-999.0,72,-99.99,,,0.00,weatherlink.com 1.10,2014-01-30 12:03:00,
2014-01-30 07:18:00,-0.6,-8.0,30.42,SSW,202,0.0,-999.0,71,-99.99,,,0.00,weatherlink.com 1.10,2014-01-30 12:18:00,
2014-01-30 07:34:00,-1.4,-8.0,30.43,SSW,202,0.0,-999.0,74,-99.99,,,0.00,weatherlink.com 1.10,2014-01-30 12:34:00,
2014-01-30 07:49:00,-1.2,-8.0,30.43,SSW,202,0.0,-999.0,74,-99.99,,,0.00,weatherlink.com 1.10,2014-01-30 12:49:00,
2014-01-30 08:04:00,-1.0,-7.0,30.43,SSW,202,0.0,-999.0,74,-99.99,,,0.00,weatherlink.com 1.10,2014-01-30 13:04:00,
2014-01-30 08:19:00,0.0,-7.0,30.43,SSW,195,0.0,-999.0,73,-99.99,,,0.00,weatherlink.com 1.10,2014-01-30 13:19:00,
2014-01-30 08:34:00,1.7,-5.0,30.42,SSW,195,0.0,-999.0,72,-99.99,,,0.00,weatherlink.com 1.10,2014-01-30 13:34:00,
2014-01-30 08:49:00,5.4,-3.0,30.41,South,191,0.0,-999.0,69,-99.99,,,0.00,weatherlink.com 1.10,2014-01-30 13:49:00,
2014-01-30 09:04:00,10.9,0.0,30.39,South,191,0.0,-999.0,61,-99.99,,,0.00,weatherlink.com 1.10,2014-01-30 14:04:00,
2014-01-30 09:19:00,16.1,2.0,30.36,South,191,1.0,-999.0,54,-99.99,,,0.00,weatherlink.com 1.10,2014-01-30 14:19:00,
2014-01-30 09:34:00,21.1,2.0,30.35,South,191,0.0,-999.0,43,-99.99,,,0.00,weatherlink.com 1.10,2014-01-30 14:34:00,
2014-01-30 09:49:00,25.4,1.0,30.33,WNW,289,0.0,-999.0,35,-99.99,,,0.00,weatherlink.com 1.10,2014-01-30 14:49:00,
2014-01-30 10:04:00,25.4,1.0,30.32,WNW,298,0.0,-999.0,35,-99.99,,,0.00,weatherlink.com 1.10,2014-01-30 15:04:00,
2014-01-30 10:19:00,26.0,3.0,30.32,WNW,299,0.0,-999.0,37,-99.99,,,0.00,weatherlink.com 1.10,2014-01-30 15:19:00,
2014-01-30 10:34:00,28.7,4.0,30.31,NW,308,0.0,-999.0,34,-99.99,,,0.01,weatherlink.com 1.10,2014-01-30 15:34:00,
2014-01-30 10:50:00,28.8,5.0,30.31,NW,312,0.0,-999.0,36,-99.99,,,0.01,weatherlink.com 1.10,2014-01-30 15:50:00,
2014-01-30 11:05:00,30.0,5.0,30.30,NW,323,0.0,-999.0,35,-99.99,,,0.01,weatherlink.com 1.10,2014-01-30 16:05:00,
2014-01-30 11:20:00,30.6,8.0,30.30,NE,55,1.0,-999.0,38,-99.99,,,0.02,weatherlink.com 1.10,2014-01-30 16:20:00,
2014-01-30 11:35:00,30.9,7.0,30.31,NNW,344,0.0,-999.0,37,-99.99,,,0.02,weatherlink.com 1.10,2014-01-30 16:35:00,
2014-01-30 11:50:00,29.7,10.0,30.31,NE,44,0.0,-999.0,43,-99.99,,,0.02,weatherlink.com 1.10,2014-01-30 16:50:00,
2014-01-30 12:05:00,29.1,7.0,30.29,NW,319,0.0,-999.0,39,-99.99,,,0.03,weatherlink.com 1.10,2014-01-30 17:05:00,
2014-01-30 12:20:00,31.3,4.0,30.28,NE,40,0.0,-999.0,32,-99.99,,,0.03,weatherlink.com 1.10,2014-01-30 17:20:00,
2014-01-30 12:35:00,32.5,8.0,30.28,North,356,0.0,-999.0,35,-99.99,,,0.03,weatherlink.com 1.10,2014-01-30 17:35:00,
2014-01-30 12:50:00,31.5,4.0,30.27,NNE,31,1.0,-999.0,31,-99.99,,,0.03,weatherlink.com 1.10,2014-01-30 17:50:00,
2014-01-30 13:05:00,31.5,7.0,30.27,NE,47,0.0,-999.0,35,-99.99,,,0.03,weatherlink.com 1.10,2014-01-30 18:05:00,
2014-01-30 13:20:00,32.1,5.0,30.27,NE,38,0.0,-999.0,32,-99.99,,,0.03,weatherlink.com 1.10,2014-01-30 18:20:00,
2014-01-30 13:35:00,34.0,6.0,30.26,NNE,32,1.0,-999.0,31,-99.99,,,0.03,weatherlink.com 1.10,2014-01-30 18:35:00,
2014-01-30 13:50:00,34.1,3.0,30.24,ESE,113,0.0,-999.0,27,-99.99,,,0.03,weatherlink.com 1.10,2014-01-30 18:50:00,
2014-01-30 14:05:00,33.5,4.0,30.24,North,0,0.0,-999.0,29,-99.99,,,0.03,weatherlink.com 1.10,2014-01-30 19:05:00,
2014-01-30 14:36:00,31.6,7.0,30.24,ENE,59,1.0,-999.0,35,-99.99,,,0.03,weatherlink.com 1.10,2014-01-30 19:36:00,
2014-01-30 14:51:00,32.1,4.0,30.23,North,0,0.0,-999.0,31,-99.99,,,0.03,weatherlink.com 1.10,2014-01-30 19:51:00,
2014-01-30 15:06:00,31.8,6.0,30.21,NE,54,0.0,-999.0,33,-99.99,,,0.03,weatherlink.com 1.10,2014-01-30 20:06:00,
2014-01-30 15:21:00,30.9,5.0,30.22,ESE,112,0.0,-999.0,34,-99.99,,,0.03,weatherlink.com 1.10,2014-01-30 20:21:00,
2014-01-30 15:36:00,30.6,8.0,30.23,North,359,0.0,-999.0,38,-99.99,,,0.03,weatherlink.com 1.10,2014-01-30 20:36:00,
2014-01-30 15:51:00,29.3,5.0,30.23,NE,47,0.0,-999.0,35,-99.99,,,0.03,weatherlink.com 1.10,2014-01-30 20:51:00,
2014-01-30 16:06:00,28.5,5.0,30.24,NE,38,0.0,-999.0,36,-99.99,,,0.03,weatherlink.com 1.10,2014-01-30 21:06:00,
2014-01-30 16:21:00,28.1,6.0,30.24,NE,44,0.0,-999.0,39,-99.99,,,0.03,weatherlink.com 1.10,2014-01-30 21:21:00,
2014-01-30 16:36:00,26.7,5.0,30.25,NNE,30,0.0,-999.0,39,-99.99,,,0.03,weatherlink.com 1.10,2014-01-30 21:36:00,
2014-01-30 16:51:00,25.8,6.0,30.26,SSE,167,0.0,-999.0,43,-99.99,,,0.03,weatherlink.com 1.10,2014-01-30 21:51:00,
2014-01-30 17:06:00,25.0,5.0,30.26,NNE,16,0.0,-999.0,43,-99.99,,,0.03,weatherlink.com 1.10,2014-01-30 22:06:00,
2014-01-30 17:21:00,24.2,7.0,30.26,NNE,20,0.0,-999.0,47,-99.99,,,0.03,weatherlink.com 1.10,2014-01-30 22:21:00,
2014-01-30 17:36:00,23.2,7.0,30.27,NNE,21,0.0,-999.0,49,-99.99,,,0.03,weatherlink.com 1.10,2014-01-30 22:36:00,
2014-01-30 17:52:00,22.4,6.0,30.28,ESE,106,0.0,-999.0,50,-99.99,,,0.03,weatherlink.com 1.10,2014-01-30 22:52:00,
2014-01-30 18:07:00,21.6,6.0,30.29,ESE,106,0.0,-999.0,52,-99.99,,,0.03,weatherlink.com 1.10,2014-01-30 23:07:00,
2014-01-30 18:22:00,20.8,7.0,30.30,NE,40,0.0,-999.0,55,-99.99,,,0.03,weatherlink.com 1.10,2014-01-30 23:22:00,
2014-01-30 18:37:00,20.3,7.0,30.29,East,95,0.0,-999.0,57,-99.99,,,0.03,weatherlink.com 1.10,2014-01-30 23:37:00,
2014-01-30 18:52:00,19.9,7.0,30.29,East,97,0.0,-999.0,57,-99.99,,,0.03,weatherlink.com 1.10,2014-01-30 23:52:00,
2014-01-30 19:07:00,19.2,7.0,30.28,East,97,0.0,-999.0,58,-99.99,,,0.03,weatherlink.com 1.10,2014-01-31 00:07:00,
2014-01-30 19:22:00,19.1,6.0,30.29,WNW,289,0.0,-999.0,58,-99.99,,,0.03,weatherlink.com 1.10,2014-01-31 00:22:00,
2014-01-30 19:37:00,18.6,7.0,30.29,SW,227,0.0,-999.0,60,-99.99,,,0.03,weatherlink.com 1.10,2014-01-31 00:37:00,
2014-01-30 19:52:00,18.0,7.0,30.31,SW,227,0.0,-999.0,62,-99.99,,,0.03,weatherlink.com 1.10,2014-01-31 00:52:00,
2014-01-30 20:07:00,17.3,6.0,30.31,South,189,2.0,-999.0,62,-99.99,,,0.03,weatherlink.com 1.10,2014-01-31 01:07:00,
2014-01-30 20:22:00,17.0,6.0,30.33,South,189,0.0,-999.0,62,-99.99,,,0.03,weatherlink.com 1.10,2014-01-31 01:22:00,
2014-01-30 20:37:00,17.2,6.0,30.26,South,189,0.0,-999.0,62,-99.99,,,0.03,weatherlink.com 1.10,2014-01-31 01:37:00,
2014-01-30 20:52:00,16.9,7.0,30.27,South,189,0.0,-999.0,64,-99.99,,,0.03,weatherlink.com 1.10,2014-01-31 01:52:00,
2014-01-30 21:07:00,16.4,6.0,30.26,South,189,0.0,-999.0,65,-99.99,,,0.03,weatherlink.com 1.10,2014-01-31 02:07:00,
2014-01-30 21:23:00,15.9,6.0,30.26,South,189,0.0,-999.0,65,-99.99,,,0.03,weatherlink.com 1.10,2014-01-31 02:23:00,
2014-01-30 21:38:00,15.7,6.0,30.23,South,189,0.0,-999.0,66,-99.99,,,0.03,weatherlink.com 1.10,2014-01-31 02:38:00,
2014-01-30 21:53:00,15.7,6.0,30.22,South,189,0.0,-999.0,66,-99.99,,,0.03,weatherlink.com 1.10,2014-01-31 02:53:00,
2014-01-30 22:08:00,15.6,6.0,30.22,South,189,0.0,-999.0,67,-99.99,,,0.03,weatherlink.com 1.10,2014-01-31 03:08:00,
2014-01-30 22:23:00,15.9,7.0,30.23,South,189,0.0,-999.0,67,-99.99,,,0.03,weatherlink.com 1.10,2014-01-31 03:23:00,
2014-01-30 22:38:00,16.1,7.0,30.19,South,189,0.0,-999.0,67,-99.99,,,0.03,weatherlink.com 1.10,2014-01-31 03:38:00,
2014-01-30 22:53:00,16.1,8.0,30.19,South,189,0.0,-999.0,70,-99.99,,,0.03,weatherlink.com 1.10,2014-01-31 03:53:00,
2014-01-30 23:08:00,16.4,8.0,30.18,South,189,0.0,-999.0,69,-99.99,,,0.03,weatherlink.com 1.10,2014-01-31 04:08:00,
2014-01-30 23:23:00,16.9,8.0,30.17,South,189,0.0,-999.0,68,-99.99,,,0.03,weatherlink.com 1.10,2014-01-31 04:23:00,
2014-01-30 23:38:00,17.5,7.0,30.17,South,189,0.0,-999.0,64,-99.99,,,0.03,weatherlink.com 1.10,2014-01-31 04:38:00,
2014-01-30 23:53:00,17.7,8.0,30.16,South,189,0.0,-999.0,66,-99.99,,,0.03,weatherlink.com 1.10,2014-01-31 04:53:00,